KHFF

Details ICAO KHFF
Name MACKALL AAF
Region United States
Timezone America/New_York (UTC-4.0)
Plans Departing 3
Arriving 2
Stats Elevation 376 ft / 115 m (AMSL)
Location 35.036552° -79.497400°
Runways 3
Magnetic Variation 8.613° W
Sunrise 2018-05-22 10:11:05 UTC / 2018-05-22 06:11:05 Local
Sunset 2018-05-23 00:21:07 UTC / 2018-05-22 20:21:07 Local
Advertisement - Login to hide

Runways

ID Width Length Bearing (true) Bearing (mag) Surface Threshold Offset Overrun Length
04 150 ft / 46 m 5,001 ft / 1,524 m 35.11° 43.72° Asphalt 0 ft / 0 m 0 ft / 0 m
11 150 ft / 46 m 4,731 ft / 1,442 m 109.35° 117.96° Concrete 500 ft / 152 m 1,000 ft / 305 m
16 150 ft / 46 m 4,873 ft / 1,485 m 163.17° 171.78° Concrete 0 ft / 0 m 0 ft / 0 m
22 150 ft / 46 m 5,001 ft / 1,524 m 215.11° 223.72° Asphalt 0 ft / 0 m 0 ft / 0 m
29 150 ft / 46 m 4,731 ft / 1,442 m 289.36° 297.97° Concrete 0 ft / 0 m 1,000 ft / 305 m
34 150 ft / 46 m 4,873 ft / 1,485 m 343.17° 351.78° Concrete 0 ft / 0 m 0 ft / 0 m

Map

Weather


0- 5 10 15 20 25 30 35+ Temperature / ° C

Clouds and Precipitation
Forecast for 2018-05-22 12:00 UTC. Updated 5 hours ago

Ground ~20,000 ft ~40,000 ft Winds

METAR

KHFF 221556Z AUTO 23008KT 10SM FEW031 FEW042 27/19 A3015 RMK AO2 SLP222 T02720189 $

TAF

Not found

Frequencies

Ground 128.35 MHz GND
Approach 127.80 MHz FAYETTEVILLE APP/DEP
Tower 121.00 MHz TWR
Warning: Do not use this data for real-world aviation or navigation. No guarantee of current accuracy is given.